This is the latest recevied weather packets stored in our database for station/object IK1QAD-3. If no packets are shown the sender has not sent any weather packets the latest 1 day(s).
| Time | Temp. | Humidity | Pressure | Rain* | Wind** | Luminosity | Snow |
|---|---|---|---|---|---|---|---|
| 1778107722 | 13.33° C | 89% | 1010.2 hPa | 0 mm | - | - | - |
| 1778106817 | 13.89° C | 89% | 1010.1 hPa | 0 mm | - | - | - |
| 1778106509 | 13.89° C | 88% | 1010.2 hPa | 0 mm | - | - | - |
| 1778106206 | 13.89° C | 88% | 1010.2 hPa | 0 mm | - | - | - |
| 1778103810 | 13.89° C | 90% | 1010 hPa | 0 mm | - | - | - |
| 1778101110 | 13.89° C | 85% | 1009.8 hPa | 0 mm | - | - | - |
| 1778100221 | 13.89° C | 85% | 1009.7 hPa | 0 mm | - | - | - |
| 1778099025 | 15° C | 82% | 1009.4 hPa | 0 mm | - | - | - |
| 1778098108 | 15.56° C | 81% | 1009.2 hPa | 0 mm | - | - | - |
| 1778097521 | 15.56° C | 82% | 1009.1 hPa | 0 mm | - | - | - |
| 1778096324 | 14.44° C | 81% | 1008.5 hPa | 0 mm | - | - | - |
| 1778096013 | 15° C | 81% | 1008.3 hPa | 0 mm | - | - | - |
| 1778095114 | 15° C | 81% | 1008 hPa | 0 mm | - | - | - |
| 1778094505 | 16.11° C | 76% | 1007.9 hPa | 0 mm | - | - | - |
| 1778093917 | 16.67° C | 75% | 1007.8 hPa | 0 mm | - | - | - |
| 1778093613 | 16.67° C | 74% | 1007.8 hPa | 0 mm | - | - | - |
| 1778093308 | 16.67° C | 74% | 1007.8 hPa | 0 mm | - | - | - |
| 1778092110 | 17.78° C | 73% | 1007.5 hPa | 0 mm | - | - | - |
| 1778091807 | 17.78° C | 74% | 1007.5 hPa | 0 mm | - | - | - |
| 1778091524 | 18.33° C | 73% | 1007.5 hPa | 0 mm | - | - | - |
| 1778089406 | 18.89° C | 65% | 1007.1 hPa | 0 mm | - | - | - |
| 1778088822 | 18.89° C | 65% | 1007 hPa | 0 mm | - | - | - |
| 1778088210 | 18.89° C | 65% | 1006.9 hPa | 0 mm | - | - | - |
| 1778087319 | 19.44° C | 65% | 1006.8 hPa | 0 mm | - | - | - |
| 1778086107 | 19.44° C | 65% | 1006.7 hPa | 0 mm | - | - | - |
* Rain latest hour (hover to see other rain measurements)
** Current wind speed in m/s (hover to see current wind gust speed)